EW4702 Weather Reports


time (UTC)temp
C
wind
direction
speed
KPH
gust
KPH
rain 1hr
cm
rain 24hr
cm
rain mn
cm
humidity
%
barometer
mb
20260505051542 11 9 0.0 0.0 0.00 0.00 0.00 82 1013.1
20260505041544 12 9 0.0 1.6 0.00 0.00 0.00 76 1013.0
20260505040038 12 9 0.0 1.6 0.00 0.00 0.00 75 1013.1
20260505034537 12 71 0.0 3.2 0.00 0.00 0.00 75 1013.2
20260505033036 12 15 0.0 3.2 0.00 0.00 0.00 73 1013.3
20260505031534 13 15 0.0 1.6 0.00 0.00 0.00 72 1013.3
20260505030034 13 18 0.0 3.2 0.00 0.00 0.00 71 1013.4
20260505024541 13 24 0.0 3.2 0.00 0.00 0.00 69 1013.4
20260505023031 14 21 1.6 3.2 0.00 0.00 0.00 69 1013.4
20260505021538 15 25 0.0 1.6 0.00 0.00 0.00 67 1013.3
20260505020032 15 26 0.0 1.6 0.00 0.00 0.00 65 1013.0
20260505014533 15 26 0.0 1.6 0.00 0.00 0.00 63 1012.9
20260505013030 16 26 0.0 1.6 0.00 0.00 0.00 61 1012.7
20260505011527 16 25 0.0 1.6 0.00 0.00 0.00 60 1012.6
20260505010027 17 20 0.0 3.2 0.00 0.00 0.00 58 1012.5
20260505004525 17 28 0.0 3.2 0.00 0.00 0.00 57 1012.3
20260505003024 18 28 0.0 1.6 0.00 0.00 0.00 54 1012.1
20260505001524 18 28 0.0 0.0 0.00 0.00 0.00 52 1012.1
20260505000031 19 28 0.0 1.6 0.00 0.00 0.00 50 1012.0
20260504234646 20 28 0.0 3.2 0.00 0.00 0.00 47 1011.9
20260504233052 21 37 0.0 3.2 0.00 0.00 0.00 46 1011.9
20260504231601 22 350 0.0 6.4 0.00 0.00 0.00 43 1011.8
20260504230050 22 306 1.6 14.5 0.00 0.00 0.00 40 1011.8
20260504224549 23 304 6.4 16.1 0.00 0.00 0.00 40 1011.7
20260504223049 23 138 6.4 24.1 0.00 0.00 0.00 40 1011.8
20260504221557 23 267 12.9 20.9 0.00 0.00 0.00 40 1011.7
20260504220046 23 282 8.0 22.5 0.00 0.00 0.00 40 1011.7
20260504214546 24 263 11.3 20.9 0.00 0.00 0.00 38 1011.7
20260504213044 24 286 1.6 16.1 0.00 0.00 0.00 38 1011.6
20260504211550 24 286 3.2 14.5 0.00 0.00 0.00 37 1011.6
20260504210100 24 312 3.2 14.5 0.00 0.00 0.00 37 1011.6
20260504204547 25 20 6.4 17.7 0.00 0.00 0.00 37 1011.7
20260504203042 24 263 1.6 17.7 0.00 0.00 0.00 37 1011.9
20260504201535 24 312 6.4 12.9 0.00 0.00 0.00 41 1012.1
20260504200002 23 281 1.6 16.1 0.00 0.00 0.00 38 1012.4
20260504194610 23 277 6.4 16.1 0.00 0.00 0.00 38 1012.5
20260504193054 23 336 6.4 16.1 0.00 0.00 0.00 39 1012.6
20260504191551 23 257 8.0 19.3 0.00 0.00 0.00 37 1012.9
20260504190112 22 267 9.7 19.3 0.00 0.00 0.00 39 1013.1
20260504184555 22 304 6.4 14.5 0.00 0.00 0.00 39 1013.3
20260504183039 22 281 9.7 19.3 0.00 0.00 0.00 37 1013.4
20260504181544 22 232 4.8 12.9 0.00 0.00 0.00 41 1013.6
20260504180057 22 229 8.0 24.1 0.00 0.00 0.00 44 1013.9
20260504174533 21 264 4.8 12.9 0.00 0.00 0.00 45 1014.0
20260504173003 21 291 1.6 14.5 0.00 0.00 0.00 43 1014.0
20260504171602 21 259 0.0 14.5 0.00 0.00 0.00 44 1014.1
20260504081539 5 355 0.0 3.2 0.00 0.00 0.00 91 1015.7